When you browse on this site, cookies collect data to enhance your experience and personalize the content and advertising you see.
Visit our Privacy Policy to learn more. By continuing to use the site, you agree to this use of cookies and data.

Météo par heure à Berdychev

Ce jour, 23 Septembre, Mercredi

Heure Température Précipitation Vent Pression Humidité
00:00 +13°C° 0 mm 3 m/s 741 mmHg 39%
01:00 +12°C° 0 mm 3 m/s 741 mmHg 38%
02:00 +11°C° 0 mm 3 m/s 741 mmHg 38%
03:00 +11°C° 0 mm 3 m/s 741 mmHg 42%
04:00 +11°C° 0 mm 3 m/s 740 mmHg 46%
05:00 +10°C° 0 mm 3 m/s 740 mmHg 49%
06:00 +12°C° 0 mm 3 m/s 740 mmHg 50%
07:00 +13°C° 0 mm 3 m/s 740 mmHg 50%
08:00 +14°C° 0 mm 4 m/s 740 mmHg 50%
09:00 +17°C° 0 mm 4 m/s 740 mmHg 43%
10:00 +20°C° 0 mm 5 m/s 740 mmHg 35%
11:00 +22°C° 0 mm 5 m/s 740 mmHg 27%
12:00 +22°C° 0 mm 5 m/s 740 mmHg 26%
13:00 +23°C° 0 mm 5 m/s 739 mmHg 25%
14:00 +25°C° 0 mm 5 m/s 739 mmHg 24%
15:00 +23°C° 0 mm 4 m/s 738 mmHg 27%
16:00 +22°C° 0 mm 3 m/s 738 mmHg 31%
17:00 +20°C° 0 mm 2 m/s 737 mmHg 35%
18:00 +19°C° 0 mm 2 m/s 737 mmHg 34%
19:00 +17°C° 0 mm 2 m/s 738 mmHg 34%
20:00 +15°C° 0 mm 2 m/s 738 mmHg 34%
21:00 +14°C° 0 mm 2 m/s 737 mmHg 34%
22:00 +14°C° 0 mm 2 m/s 737 mmHg 34%
23:00 +13°C° 0 mm 2 m/s 737 mmHg 34%

Demain, 24 Septembre, Jeudi

Heure Température Précipitation Vent Pression Humidité
00:00 +13°C° 0 mm 2 m/s 737 mmHg 35%
01:00 +13°C° 0 mm 2 m/s 737 mmHg 37%
02:00 +13°C° 0 mm 2 m/s 737 mmHg 39%
03:00 +13°C° 0 mm 2 m/s 737 mmHg 43%
04:00 +11°C° 0 mm 3 m/s 737 mmHg 46%
05:00 +11°C° 0 mm 3 m/s 737 mmHg 49%
06:00 +12°C° 0 mm 3 m/s 737 mmHg 50%
07:00 +13°C° 0 mm 3 m/s 737 mmHg 51%
08:00 +16°C° 0 mm 3 m/s 737 mmHg 53%
09:00 +18°C° 0 mm 3 m/s 737 mmHg 47%
10:00 +20°C° 0 mm 4 m/s 737 mmHg 42%
11:00 +23°C° 0 mm 4 m/s 737 mmHg 37%
12:00 +23°C° 0 mm 4 m/s 737 mmHg 35%
13:00 +25°C° 0 mm 3 m/s 737 mmHg 32%
14:00 +26°C° 0 mm 3 m/s 737 mmHg 30%
15:00 +25°C° 0 mm 3 m/s 737 mmHg 33%
16:00 +24°C° 0 mm 2 m/s 736 mmHg 37%
17:00 +23°C° 0 mm 2 m/s 736 mmHg 40%
18:00 +20°C° 0 mm 2 m/s 736 mmHg 40%
19:00 +19°C° 0 mm 2 m/s 736 mmHg 39%
20:00 +18°C° 0 mm 2 m/s 737 mmHg 38%
21:00 +17°C° 0 mm 2 m/s 737 mmHg 39%
22:00 +17°C° 0 mm 2 m/s 736 mmHg 40%
23:00 +16°C° 0 mm 2 m/s 736 mmHg 41%

Après-demain, 25 Septembre, Vendredi

Heure Température Précipitation Vent Pression Humidité
00:00 +16°C° 0 mm 2 m/s 736 mmHg 42%
01:00 +16°C° 0 mm 2 m/s 736 mmHg 44%
02:00 +15°C° 0 mm 2 m/s 736 mmHg 45%
03:00 +15°C° 0 mm 2 m/s 736 mmHg 46%
04:00 +15°C° 0 mm 2 m/s 736 mmHg 47%
05:00 +14°C° 0 mm 2 m/s 736 mmHg 49%
06:00 +14°C° 0 mm 3 m/s 736 mmHg 51%
07:00 +17°C° 0 mm 3 m/s 736 mmHg 54%
08:00 +18°C° 0 mm 4 m/s 735 mmHg 56%
09:00 +20°C° 0 mm 4 m/s 735 mmHg 53%
10:00 +22°C° 0 mm 4 m/s 735 mmHg 51%
11:00 +26°C° 0 mm 5 m/s 735 mmHg 48%
12:00 +26°C° 0 mm 5 m/s 735 mmHg 44%
13:00 +27°C° 0 mm 5 m/s 734 mmHg 40%
14:00 +28°C° 0 mm 5 m/s 734 mmHg 36%
15:00 +27°C° 0 mm 4 m/s 734 mmHg 38%
16:00 +26°C° 0 mm 4 m/s 733 mmHg 40%
17:00 +24°C° 0 mm 3 m/s 732 mmHg 41%
18:00 +22°C° 0 mm 3 m/s 732 mmHg 40%
19:00 +21°C° 0 mm 4 m/s 732 mmHg 39%
20:00 +20°C° 0 mm 4 m/s 732 mmHg 38%
21:00 +19°C° 0 mm 4 m/s 732 mmHg 40%
22:00 +19°C° 0 mm 5 m/s 732 mmHg 42%
23:00 +19°C° 0 mm 5 m/s 732 mmHg 44%

26 Septembre, Samedi

Heure Température Précipitation Vent Pression Humidité
00:00 +17°C° 0 mm 5 m/s 732 mmHg 52%
01:00 +17°C° 0 mm 4 m/s 732 mmHg 60%
02:00 +17°C° 0 mm 4 m/s 731 mmHg 68%
03:00 +17°C° 0 mm 4 m/s 731 mmHg 68%
04:00 +15°C° 0 mm 5 m/s 731 mmHg 68%
05:00 +15°C° 0 mm 5 m/s 731 mmHg 69%
06:00 +16°C° 0 mm 6 m/s 731 mmHg 64%
07:00 +17°C° 0 mm 6 m/s 731 mmHg 60%
08:00 +18°C° 0 mm 7 m/s 731 mmHg 56%
09:00 +21°C° 0 mm 7 m/s 731 mmHg 51%
10:00 +23°C° 0 mm 7 m/s 731 mmHg 46%
11:00 +26°C° 0 mm 8 m/s 731 mmHg 42%
12:00 +26°C° 0 mm 8 m/s 731 mmHg 40%
13:00 +27°C° 0 mm 8 m/s 730 mmHg 39%
14:00 +28°C° 0 mm 8 m/s 730 mmHg 37%
15:00 +27°C° 0 mm 7 m/s 729 mmHg 39%
16:00 +26°C° 0 mm 6 m/s 729 mmHg 40%
17:00 +26°C° 0 mm 5 m/s 729 mmHg 42%
18:00 +24°C° 0 mm 6 m/s 728 mmHg 43%
19:00 +23°C° 0 mm 6 m/s 728 mmHg 44%
20:00 +22°C° 0 mm 7 m/s 728 mmHg 45%
21:00 +22°C° 0 mm 6 m/s 728 mmHg 48%
22:00 +21°C° 0 mm 6 m/s 728 mmHg 51%
23:00 +21°C° 0 mm 6 m/s 727 mmHg 54%

27 Septembre, Dimanche

Heure Température Précipitation Vent Pression Humidité
00:00 +21°C° 0 mm 7 m/s 727 mmHg 57%
01:00 +20°C° 0 mm 7 m/s 727 mmHg 59%
02:00 +20°C° 0 mm 7 m/s 727 mmHg 61%
03:00 +20°C° 0 mm 7 m/s 726 mmHg 62%
04:00 +20°C° 0 mm 8 m/s 726 mmHg 63%
05:00 +20°C° 0 mm 8 m/s 725 mmHg 63%
06:00 +18°C° 3.4 mm 8 m/s 725 mmHg 72%
07:00 +17°C° 3.4 mm 8 m/s 725 mmHg 81%
08:00 +16°C° 3.4 mm 8 m/s 725 mmHg 90%
09:00 +16°C° 5.1 mm 8 m/s 725 mmHg 89%
10:00 +15°C° 5.1 mm 9 m/s 726 mmHg 89%
11:00 +15°C° 5.1 mm 9 m/s 726 mmHg 89%
12:00 +16°C° 1.5 mm 8 m/s 726 mmHg 85%
13:00 +17°C° 1.5 mm 7 m/s 726 mmHg 81%
14:00 +19°C° 1.5 mm 6 m/s 727 mmHg 77%
15:00 +16°C° 0.5 mm 6 m/s 727 mmHg 79%
16:00 +14°C° 0.5 mm 6 m/s 728 mmHg 80%
17:00 +11°C° 0.5 mm 6 m/s 728 mmHg 82%
18:00 +12°C° 0 mm 5 m/s 729 mmHg 83%
19:00 +11°C° 0 mm 4 m/s 730 mmHg 85%
20:00 +10°C° 0 mm 3 m/s 730 mmHg 87%
21:00 +10°C° 0 mm 3 m/s 731 mmHg 87%
22:00 +10°C° 0 mm 3 m/s 731 mmHg 88%
23:00 +10°C° 0 mm 3 m/s 732 mmHg 89%

28 Septembre, Lundi

Heure Température Précipitation Vent Pression Humidité
00:00 +9°C° 0 mm 3 m/s 733 mmHg 88%
01:00 +9°C° 0 mm 3 m/s 733 mmHg 87%
02:00 +9°C° 0 mm 3 m/s 734 mmHg 86%
03:00 +9°C° 0 mm 3 m/s 734 mmHg 86%
04:00 +8°C° 0 mm 2 m/s 734 mmHg 87%
05:00 +8°C° 0 mm 2 m/s 735 mmHg 87%
06:00 +9°C° 0 mm 2 m/s 735 mmHg 83%
07:00 +10°C° 0 mm 2 m/s 735 mmHg 78%
08:00 +11°C° 0 mm 1 m/s 736 mmHg 74%
09:00 +13°C° 0 mm 2 m/s 736 mmHg 68%
10:00 +15°C° 0 mm 2 m/s 736 mmHg 61%
11:00 +16°C° 0 mm 3 m/s 737 mmHg 55%
12:00 +17°C° 0 mm 3 m/s 736 mmHg 53%
13:00 +17°C° 0 mm 3 m/s 736 mmHg 52%
14:00 +18°C° 0 mm 4 m/s 736 mmHg 50%
15:00 +17°C° 0 mm 3 m/s 736 mmHg 53%
16:00 +17°C° 0 mm 3 m/s 735 mmHg 57%
17:00 +16°C° 0 mm 3 m/s 735 mmHg 60%
18:00 +16°C° 0 mm 3 m/s 735 mmHg 59%
19:00 +14°C° 0 mm 3 m/s 735 mmHg 58%
20:00 +14°C° 0 mm 3 m/s 735 mmHg 58%
21:00 +14°C° 0.2 mm 3 m/s 734 mmHg 60%
22:00 +14°C° 0.2 mm 3 m/s 734 mmHg 63%
23:00 +13°C° 0.2 mm 3 m/s 734 mmHg 66%
Voir plus